Home > Weather > Bournemouth > Past weeks

Flag for United Kingdom Past Weather in Bournemouth, England, United Kingdom — Yesterday and Last 2 Weeks

Now
50 °F

Cool.


Feels Like: 46 °F
Forecast: 54 / 66 °F
Wind: 12 mph from Southwest

Location: Boscombe Down

Current Time: Jul 2, 2016 at 3:05:47 AM

Latest Report: Jul 2, 2016 at 1:50 AM


Visibility: N/A

Pressure: 29.86 "Hg

Humidity: 88%

Dew Point: 46 °F

Location of BournemouthLocation

Past Weather in Bournemouth — Graph

°F

Bournemouth Temperature Yesterday

Maximum temperature yesterday: 63 °F (at 1:50 PM)
Minimum temperature yesterday: 50 °F (at 10:50 PM)
Average temperature yesterday: 58 °F

High & Low Weather Summary for the Past Weeks

 TemperatureHumidityPressure
High70 °F (Jun 23, 11:50 AM)100% (Jun 17, 2:50 AM)30.24 "Hg (Jun 17, 2:50 AM)
Low46 °F (Jun 25, 4:50 AM)52% (Jun 25, 2:50 PM)29.62 "Hg (Jun 17, 1:50 AM)
Average58 °F86%29.98 "Hg
* Reported Jun 17 1:50 AM — Jul 2 1:50 AM, Bournemouth, Weather by CustomWeather, © 2016

Note: Actual official high and low records may vary slightly from our data, if they occured in-between our weather recording intervals... More about our weather records

Advertising

Bournemouth Weather History for the Previous 24 Hours

Scroll right to see more
 ConditionsComfort  
Time TempWeatherWind HumidityBarometerVisibility
1:50 AM
Sat, Jul 2
50 °FCool.12 mph88%29.86 "HgN/A
12:50 AM50 °FCool.10 mph88%29.86 "HgN/A
10:50 PM
Fri, Jul 1
50 °FCool.12 mph88%29.83 "HgN/A
9:50 PM52 °FScattered clouds.9 mph88%29.83 "HgN/A
8:50 PM55 °FPassing clouds.8 mph82%29.83 "HgN/A
7:50 PM57 °FPartly sunny.12 mph82%29.80 "HgN/A
6:50 PM57 °FPartly sunny.14 mph88%29.80 "HgN/A
5:50 PM61 °FPartly sunny.13 mph68%29.77 "HgN/A
4:50 PM61 °FPartly sunny.14 mph68%29.80 "HgN/A
3:50 PM59 °FBroken clouds.9 mph72%29.77 "HgN/A
2:50 PM63 °FBroken clouds.12 mph73%29.77 "HgN/A
1:50 PM63 °FScattered clouds.20 mph68%29.77 "HgN/A
12:50 PM59 °FBroken clouds.15 mph82%29.80 "HgN/A
11:50 AM59 °FBroken clouds.10 mph88%29.80 "HgN/A
10:50 AM57 °FLight rain. Partly sunny.13 mph82%29.80 "HgN/A
9:50 AM59 °FLight rain. Partly sunny.13 mph82%29.80 "HgN/A
8:50 AM57 °FLight rain. Partly sunny.13 mph94%29.80 "HgN/A
7:50 AM57 °FDrizzle. Broken clouds.12 mph94%29.80 "HgN/A
6:50 AM57 °FPartly sunny.10 mph94%29.80 "HgN/A
5:50 AM55 °FPassing clouds.10 mph100%29.80 "HgN/A
4:50 AM55 °FPassing clouds.12 mph100%29.80 "Hg1 mi
3:50 AM57 °FDrizzle. Low clouds.10 mph94%29.77 "Hg4 mi
Weather by CustomWeather, © 2016

See weather overviewHow to use our weather pages